User: anonymous   Login
Location: Unspecified
(0.0000°N, 0.0000°E)
Time: 02:46:13
(UTC+00:00)
Language:

NOSS 2-1 (E) - Orbit

View from above orbital plane
View from above orbital plane
View from above satellite
View from above satellite

Ground track
Ground track

The orbit data is extracted from the following two-line orbital elements,

1 20642U 90050E   19141.94661023 0.00000070  00000-0  13043-4 0    00
2 20642  63.3344 169.7506 0844003  38.4111 321.5889 13.41879233    07
Epoch (UTC): 21 May 2019 22:43:07
Eccentricity: 0.0844003
inclination: 63.3344°
perigee height: 471 km
apogee height: 1733 km
right ascension of ascending node: 169.7506°
argument of perigee: 38.4111°
revolutions per day: 13.41879233
mean anomaly at epoch: 321.5889°
orbit number at epoch: 0

The dashed part of the orbit path shows where the satellite is in the earth's shadow,  

DLR